SCP
-0 -0 0 -0 0 0 -0 -0 -0 -0 -0 0 0 0 0 0 0 0 0 0 0 0 0 -0 -0 -0 0 0 -0 -0 0 -0 -0 -0 -0 -0 -0 -0 -0 -0 -0 -0 -0 -0 -0 -0 -0 -0 0
0 0 0 0 -0 -0 -0 -0 -0 -0 0 0 0 0 0 0 0 0 0 0 0 0 0 0 -0 -0 -0 -0 0 -0 -0 -0 -0 -0 -0 -0 -0 -0 -0 -0 -0 -0 -0 -0 -0 -0 -0 -0 -0
0 0 0 0 0 0 0 -0 -0 -0 0 0 0 0 0 0 0 0 0 0 0 0 0 0 0 -0 -0 -0 -0 -0 -0 -0 -0 -0 -0 -0 -0 -0 -0 -0 -0 -0 -0 -0 -0 -0 0 -0 -0
0 0 0 0 0 0 0 -0 -0 0 0 0 0 0 0 0 0 0 0 0 0 0 0 0 0 0 0 -0 -0 -0 -0 -0 -0 -0 -0 -0 -0 -0 -0 -0 -0 -0 -0 -0 -0 0 0 0 -0
0 0 0 0 0 0 0 0 0 0 -0 -0 -0 0 0 0 0 0 0 0 0 0 0 0 0 0 0 0 -0 -0 -0 -0 -0 0 -0 -0 -0 -0 -0 -0 -0 -0 -0 0 0 0 0 0 0
0 0 0 0 0 0 0 0 0 -0 -0 -0 -0 0 0 0 0 0 0 0 0 0 0 0 0 0 0 0 0 0 -0 -0 -0 -0 0 -0 -0 -0 -0 -0 0 0 0 0 0 0 0 0 0
0 0 0 0 0 0 0 0 0 0 -0 0 0 0 0 0 0 0 0 0 0 0 0 0 0 0 0 0 0 0 0 0 -0 0 -0 0 0 0 0 0 0 0 0 0 0 0 0 0 0
0 0 0 0 0 0 0 0 0 0 -0 0 0 0 0 0 0 0 0 0 0 0 0 0 0 0 0 0 0 0 0 0 0 0 0 0 0 0 0 0 0 0 0 0 0 0 0 0 0
0 0 0 0 0 0 0 0 0 0 0 0 0 0 0 0 0 0 0 0 0 0 0 0 0 0 0 0 0 0 0 0 0 0 0 0 0 0 0 0 0 0 0 0 0 0 0 0 0
0 0 0 0 0 0 0 0 0 0 0 0 0 0 0 0 0 0 0 0 0 -0 -0 0 0 0 0 0 0 0 0 0 0 0 0 0 0 0 0 0 0 0 0 0 0 0 0 0 0
0 0 0 0 0 0 0 0 0 0 0 0 0 0 0 0 0 0 0 0 0 0 0 0 0 0 0 0 0 0 0 0 0 0 0 0 0 0 0 0 0 0 0 0 0 0 0 0 0
0 0 0 0 0 0 0 0 0 0 0 0 0 0 0 0 0 0 0 0 0 0 0 0 0 0 0 0 0 0 0 0 0 0 0 0 0 0 0 0 0 0 0 0 0 0 0 0 0
0 0 0 0 0 0 0 0 0 0 0 0 0 0 0 0 0 0 0 0 0 0 0 0 0 0 0 0 0 0 0 0 0 0 0 0 0 0 0 0 0 0 0 0 0 0 0 0 0
0 0 0 0 0 0 0 0 0 0 0 0 0 0 0 0 0 0 0 0 0 0 0 0 0 0 0 0 0 0 0 0 0 0 0 0 0 0 0 0 0 0 0 0 0 0 0 0 0
0 0 0 0 0 0 0 0 0 0 0 0 0 0 0 0 0 0 0 0 0 0 0 0 0 0 0 0 0 0 0 0 0 0 0 0 0 0 0 0 0 0 0 0 0 0 0 0 0
0 0 0 0 0 0 0 -0 0 0 0 0 0 0 0 0 0 0 0 0 0 0 0 0 0 0 0 0 0 0 0 0 0 0 0 0 0 0 0 0 0 0 0 0 0 0 0 0 0
0 0 0 0 0 0 0 0 0 0 0 0 0 0 0 0 0 0 0 0 0 0 0 0 0 0 0 0 0 0 0 0 0 0 0 0 0 0 0 0 0 0 0 0 0 0 0 0 0
0 0 0 0 0 0 0 0 0 0 0 0 0 0 0 0 0 0 0 0 0 0 0 0 0 0 0 0 0 0 0 0 0 0 0 0 0 0 0 0 0 0 0 0 0 0 0 0 0
0 0 0 0 0 0 0 0 0 0 0 0 0 0 0 0 0 0 0 0 0 0 0 0 0 0 0 0 0 0 0 0 0 0 0 0 0 0 0 0 0 0 0 0 0 0 0 0 0
0 0 0 0 0 0 0 0 0 0 0 0 0 0 0 0 0 0 0 0 0 0 0 0 0 0 0 0 0 0 0 0 0 0 0 0 0 0 0 0 0 0 0 0 0 0 0 0 0
0 0 0 0 0 0 0 -0 0 0 0 0 0 0 0 0 0 0 0 0 0 0 0 0 0 0 0 0 0 0 0 0 0 0 0 0 0 0 0 0 0 0 0 0 0 0 0 0 0
0 0 0 0 0 0 0 -0 -0 0 0 0 0 0 0 0 0 0 0 0 0 0 0 0 0 0 0 0 0 0 0 0 0 0 0 0 0 0 0 0 0 0 0 0 0 0 0 0 0
0 0 0 0 0 0 0 0 0 0 0 0 0 0 0 0 0 0 0 0 0 0 0 0 0 0 0 0 0 0 0 0 0 0 0 0 0 0 0 0 0 0 0 0 0 0 0 0 0
0 0 0 0 0 0 0 0 -0 0 0 0 0 0 0 0 0 0 0 0 0 0 0 0 0 0 0 0 0 0 0 0 0 0 0 0 0 0 0 0 0 0 0 0 0 0 0 0 0
0 0 0 0 0 0 0 0 0 0 0 0 0 0 0 0 0 0 0 0 0 0 0 0 0 0 0 0 0 0 0 0 0 0 0 0 0 0 0 0 0 0 0 0 0 0 0 0 0
0 0 0 0 0 0 0 0 0 0 0 0 0 0 0 0 0 0 0 0 0 0 0 0 0 0 0 0 0 0 0 0 0 0 0 0 0 0 0 0 0 0 0 0 0 0 0 0 0
0 0 0 0 0 0 0 0 0 0 0 0 0 0 0 0 0 0 0 0 0 0 0 0 0 0 0 0 0 0 0 0 0 0 0 0 0 0 0 0 0 0 0 0 0 0 0 0 0
0 0 0 0 0 0 0 0 0 0 0 0 0 0 0 0 0 0 0 0 0 0 0 0 0 0 0 0 0 0 0 0 0 0 0 0 0 0 0 0 0 0 0 0 0 0 0 0 0
0 0 0 0 0 0 0 0 0 0 0 0 0 0 0 0 0 0 0 0 0 0 0 0 0 0 0 0 0 0 0 0 0 0 0 0 0 0 0 0 0 0 0 0 0 0 0 0 0
0 0 0 0 0 0 0 0 0 0 0 0 0 0 0 0 0 0 0 0 0 0 0 0 0 0 0 0 0 0 0 0 0 0 0 0 0 0 0 0 0 0 0 0 0 0 0 0 0
Wind_Speed_500mb
35 33 17 3 7 8 2 1 1 5 2 2 8 6 6 5 4 3 4 24 16 23 23 26 23 17 9 7 5 4 9 14 19 18 10 14 17 14 13 23 22 16 22 22 26 29 28 24 21
37 29 7 5 8 6 3 4 1 2 11 16 10 5 3 2 2 0 14 17 19 23 22 23 19 11 8 8 7 8 13 16 16 16 16 10 12 12 20 15 17 19 14 20 22 18 27 27 20
33 22 7 7 5 5 3 2 5 6 16 3 4 6 3 1 0 3 5 15 21 24 21 18 14 10 8 7 8 10 14 20 20 18 21 15 9 7 16 15 16 16 16 15 17 13 20 10 21
27 8 10 8 5 2 3 1 5 8 4 1 3 4 2 2 3 1 5 15 20 22 21 17 13 10 8 7 7 10 15 26 26 19 15 13 11 4 11 14 16 10 17 10 11 10 13 18 26
20 8 8 7 5 5 4 5 9 3 4 3 1 2 2 1 1 2 5 13 19 20 19 16 13 11 8 8 7 5 9 26 25 22 16 14 14 10 7 8 15 14 9 6 9 8 11 16 20
8 6 8 3 5 7 5 4 5 1 1 4 1 1 3 5 1 1 7 12 16 15 15 16 14 12 10 8 8 7 6 13 17 20 18 19 19 15 14 13 15 12 10 6 7 4 5 9 14
8 7 7 6 3 6 3 6 4 3 3 1 1 1 4 8 3 2 9 14 13 15 15 15 16 16 13 12 10 9 8 11 16 20 22 19 19 17 13 19 20 13 12 8 6 4 5 7 10
6 8 5 3 4 4 2 3 1 8 7 2 3 2 4 14 4 5 11 16 17 17 16 17 18 20 18 15 15 13 14 11 16 20 22 26 25 23 19 15 19 15 15 13 12 10 9 9 11
4 7 2 6 9 3 1 4 2 4 3 6 3 4 9 14 7 10 13 17 20 21 21 22 24 22 20 21 21 19 17 19 21 23 23 28 25 22 23 23 22 17 19 21 19 17 15 14 14
7 6 13 4 5 2 1 3 3 5 3 6 10 11 12 12 11 14 16 17 21 20 21 20 20 26 27 26 27 26 25 24 24 24 25 27 31 29 27 22 24 24 26 24 25 23 22 20 19
5 9 6 2 2 2 2 3 2 5 4 10 6 3 11 16 14 16 21 22 23 23 25 24 21 22 27 30 29 31 30 30 31 29 26 27 32 35 35 31 28 30 31 30 29 26 25 26 25
5 6 6 2 3 1 4 7 9 10 5 7 8 11 20 22 24 22 25 28 29 32 31 30 30 29 29 30 35 34 35 35 36 33 32 31 31 34 36 36 33 34 34 36 30 32 30 31 31
6 6 4 6 10 11 13 16 16 18 26 23 20 25 19 21 26 29 31 33 34 39 40 39 38 39 37 38 38 42 41 40 38 36 37 38 36 34 35 37 39 38 37 38 36 34 35 36 36
4 6 3 6 12 14 9 11 9 3 10 19 20 20 25 23 24 28 32 36 40 44 45 47 48 47 45 45 46 44 44 44 44 42 40 39 39 39 38 38 41 43 41 39 40 39 40 42 43
4 4 1 11 10 9 7 8 15 30 29 30 34 34 25 26 25 31 37 45 50 53 53 51 51 54 54 52 51 53 50 47 47 48 46 45 43 41 40 41 41 41 44 45 43 45 46 48 48
6 7 2 5 7 10 11 26 7 17 16 23 22 26 33 36 45 52 53 52 52 60 60 56 54 55 57 58 56 56 56 54 50 48 51 51 50 48 46 46 44 39 41 46 50 51 52 53 53
6 7 10 10 2 4 12 9 11 11 18 26 33 46 52 58 66 71 72 72 65 60 61 55 56 59 59 58 59 61 60 60 57 54 53 52 53 53 53 53 48 44 45 49 53 56 56 59 58
13 7 6 12 2 4 13 20 24 53 49 52 56 58 60 67 80 82 79 72 70 69 71 66 57 58 62 59 59 63 65 65 63 61 59 57 53 53 57 56 54 49 50 54 57 60 61 61 62
6 9 11 3 6 3 14 27 23 50 43 50 62 66 69 78 83 80 72 66 60 56 60 77 73 60 58 65 65 64 64 63 65 63 62 59 57 57 58 59 60 56 52 55 56 58 64 67 64
19 13 9 5 4 4 12 39 19 19 35 53 59 64 75 85 79 71 72 71 72 71 61 57 70 72 67 64 68 67 67 66 63 60 59 60 62 59 62 61 63 64 63 66 69 68 70 71 66
13 26 9 9 0 7 11 50 27 16 42 43 46 56 61 62 77 71 74 65 67 56 50 49 55 62 64 56 50 53 58 62 62 64 60 59 56 53 53 54 56 64 72 72 70 73 75 76 73
19 13 11 7 4 13 6 31 26 12 23 11 47 55 60 62 62 58 61 61 55 50 46 43 49 54 54 45 44 44 47 52 50 57 57 56 56 54 54 52 51 51 55 63 70 72 72 71 75
14 13 15 9 7 6 10 13 6 17 9 15 39 44 48 35 32 30 24 20 19 24 25 27 32 36 40 42 42 41 40 40 40 43 47 48 49 50 50 51 51 53 55 56 57 61 66 68 70
15 10 6 5 6 19 16 19 38 6 11 4 9 7 11 5 15 20 24 26 30 31 26 17 5 7 12 16 21 21 23 26 31 32 35 37 40 42 45 48 48 51 50 53 53 56 60 65 68
13 16 6 9 13 14 11 18 44 17 26 14 25 27 17 22 26 31 34 38 39 40 40 39 36 36 28 17 8 1 7 16 22 27 29 33 35 34 37 41 45 51 50 51 47 51 54 58 64
23 18 8 11 8 4 4 16 12 3 11 21 13 36 34 35 37 40 40 40 41 41 40 38 38 38 34 30 27 22 18 14 9 8 8 11 16 23 31 37 43 45 46 48 51 53 55 58 63
11 19 18 6 7 5 9 19 26 10 11 20 33 44 44 43 42 41 40 40 41 42 42 41 39 39 37 35 31 28 23 19 18 16 15 15 17 17 20 25 31 38 41 44 48 54 60 60 62
12 14 7 10 11 14 9 9 15 14 18 14 16 25 42 42 42 40 39 39 42 42 42 39 39 39 37 35 33 33 30 27 23 20 18 20 20 21 23 21 23 30 34 36 40 46 53 56 62
11 12 4 2 7 10 8 11 11 12 9 19 17 26 37 40 41 39 35 33 34 35 34 33 32 30 30 30 29 27 26 24 23 23 25 26 29 31 35 36 36 34 34 36 39 44 48 53 58
16 25 22 12 11 7 3 15 10 12 21 49 54 44 39 38 34 35 32 26 23 24 27 26 25 25 26 24 22 23 23 23 24 28 30 32 34 35 35 36 36 36 38 39 40 44 44 51 58
Wind_Direction_500mb
344 345 346 352 55 64 49 256 304 110 88 186 128 152 188 111 165 228 207 168 176 178 174 167 176 191 226 242 251 226 192 178 164 164 149 164 183 180 150 137 130 123 110 101 109 118 124 111 96
342 349 5 85 83 76 284 260 175 85 135 108 99 90 35 56 107 82 150 175 175 176 181 178 183 206 239 259 250 218 192 193 152 127 142 153 158 152 148 147 129 130 124 126 134 123 137 125 108
340 353 18 81 99 132 128 196 130 108 149 55 93 59 70 36 145 158 156 182 178 174 180 188 204 222 245 255 254 227 195 174 147 171 169 173 164 130 155 147 143 135 125 126 143 134 137 126 117
347 8 54 71 61 29 17 50 153 128 116 350 95 82 355 297 356 173 180 181 182 178 183 197 214 227 247 259 254 247 187 175 154 183 148 169 219 186 156 164 162 158 142 136 146 142 114 125 137
349 42 53 68 339 303 314 136 147 102 99 128 348 335 297 334 149 124 196 186 188 187 195 204 216 231 246 258 260 265 194 190 195 169 170 182 211 205 187 198 164 169 179 129 124 131 141 144 156
24 57 65 85 321 310 335 133 132 61 113 154 177 185 345 322 251 36 160 172 184 202 208 215 228 239 251 251 266 263 215 197 191 181 172 182 206 231 225 197 188 189 191 177 152 158 161 167 182
81 65 141 149 315 349 314 156 146 206 309 144 169 93 343 355 296 154 167 175 190 204 216 232 238 242 256 260 261 258 243 212 188 201 180 206 223 226 212 200 219 213 206 216 205 216 229 223 218
62 87 104 171 170 240 296 165 49 173 243 265 179 33 356 358 292 222 183 192 203 214 227 232 240 248 250 256 268 261 250 240 214 224 207 192 210 220 230 221 220 215 222 231 241 242 245 253 252
86 66 173 185 166 215 273 174 134 140 195 238 248 291 311 324 294 239 215 216 221 229 235 236 240 244 251 255 254 257 256 250 246 244 239 243 235 234 233 236 248 231 244 230 230 246 256 259 263
86 113 214 193 196 166 268 201 172 160 169 240 255 280 304 316 278 257 250 246 243 244 248 250 250 247 253 257 251 254 255 255 255 255 253 251 250 253 254 252 243 238 235 248 232 235 248 259 265
132 168 207 213 179 298 316 297 307 155 245 231 228 264 316 313 290 277 272 268 275 273 264 261 260 260 260 258 254 253 257 260 257 257 260 260 256 259 256 254 252 248 245 244 246 246 252 261 264
135 215 167 71 76 290 299 305 295 212 256 312 216 302 311 308 301 299 297 284 280 277 276 272 268 268 267 264 251 252 255 259 259 260 261 262 262 263 266 264 261 257 254 259 264 254 252 257 263
159 207 198 262 283 278 270 265 269 271 279 281 270 289 295 303 303 300 292 285 281 279 281 277 271 270 269 264 261 256 256 258 261 261 260 261 263 265 266 269 269 266 263 262 261 261 256 257 261
152 192 245 274 276 272 249 258 250 176 285 286 272 270 292 295 305 301 295 297 293 290 284 281 274 270 267 266 263 262 261 261 258 259 261 263 264 264 265 267 270 270 268 268 265 264 262 262 262
185 251 329 227 246 250 275 259 239 264 263 265 268 278 282 299 308 312 311 306 304 297 286 276 274 272 268 268 266 264 264 263 261 259 260 259 262 266 269 270 270 272 272 269 266 263 266 267 267
167 79 146 276 199 228 165 264 231 268 245 258 265 275 284 289 300 301 301 299 297 294 285 277 272 269 268 268 268 267 266 266 265 264 259 258 260 263 266 269 271 275 274 272 270 270 270 270 272
213 233 201 306 186 284 191 261 243 256 259 271 282 289 295 299 297 295 294 291 288 285 287 275 271 269 269 268 268 267 267 266 268 265 264 261 259 260 264 268 272 275 274 272 272 271 271 274 275
206 215 206 208 299 246 256 255 270 272 275 280 286 291 295 296 295 296 296 295 283 280 277 273 274 270 267 266 265 264 264 265 264 265 265 265 264 266 263 264 269 271 277 275 272 273 275 276 279
162 198 217 254 204 211 246 261 257 272 280 282 285 287 290 291 290 294 297 302 299 289 279 262 264 269 276 263 260 259 262 266 268 270 272 272 272 269 267 268 267 263 265 274 274 273 273 274 276
216 223 206 218 264 212 294 280 256 240 260 267 273 283 288 289 291 297 301 297 293 293 288 270 259 263 269 271 260 261 264 266 271 275 277 276 273 272 272 272 272 271 270 271 271 270 271 272 275
212 226 169 215 12 250 324 286 271 234 239 257 265 273 277 283 298 305 303 296 296 292 284 263 257 258 261 269 268 266 264 265 268 272 275 278 283 286 285 283 281 278 275 273 273 273 272 273 274
220 160 160 142 103 266 154 287 274 259 248 235 263 269 284 295 299 302 301 299 296 290 276 271 268 263 256 257 261 265 269 269 274 275 276 276 278 283 286 288 287 285 284 283 281 280 278 279 275
236 155 173 151 180 287 213 275 308 82 321 277 268 290 292 292 312 336 353 351 343 320 302 283 265 257 250 255 259 259 260 269 278 280 284 285 286 288 288 287 288 285 283 283 282 283 284 283 281
152 108 104 125 196 242 209 202 276 211 194 276 287 268 303 18 62 66 72 76 69 69 70 66 69 213 234 246 253 258 267 275 278 279 284 287 289 294 295 295 293 293 290 288 289 287 283 282 281
165 134 197 212 199 254 206 189 250 310 301 228 249 271 113 102 97 99 94 86 83 79 78 78 79 80 78 85 105 177 244 265 272 277 280 282 284 288 291 291 290 288 289 285 286 284 284 284 280
189 185 193 216 200 230 54 232 251 126 329 331 348 127 122 114 108 103 98 92 88 86 86 87 86 88 86 85 82 81 82 81 65 37 3 325 307 300 292 288 284 285 289 289 287 284 285 285 284
175 213 213 327 99 260 224 270 281 53 43 15 121 125 119 116 113 107 104 100 93 88 84 86 87 88 88 86 87 85 81 72 57 45 27 9 349 337 330 321 313 305 301 295 289 290 288 287 286
171 157 159 191 225 232 245 259 236 355 325 23 72 93 115 118 113 105 99 94 89 85 83 81 79 76 76 75 73 68 64 63 58 49 38 20 15 358 352 345 336 322 313 308 299 294 293 290 289
182 198 144 137 191 219 227 244 200 224 238 113 87 121 124 121 116 110 103 97 89 83 76 73 72 73 71 68 62 57 48 40 31 21 15 6 1 354 350 346 342 332 325 323 311 299 291 286 288
216 210 187 219 196 219 222 272 178 225 161 144 151 153 143 129 117 112 108 101 91 79 70 64 59 53 47 44 40 34 23 16 5 357 353 348 344 340 336 332 328 324 322 321 314 306 303 294 286
Wind_Speed_850mb
35 33 17 3 7 8 2 1 1 5 2 2 8 6 6 5 4 3 4 24 16 23 23 26 23 17 9 7 5 4 9 14 19 18 10 14 17 14 13 23 22 16 22 22 26 29 28 24 21
37 29 7 5 8 6 3 4 1 2 11 16 10 5 3 2 2 0 14 17 19 23 22 23 19 11 8 8 7 8 13 16 16 16 16 10 12 12 20 15 17 19 14 20 22 18 27 27 20
33 22 7 7 5 5 3 2 5 6 16 3 4 6 3 1 0 3 5 15 21 24 21 18 14 10 8 7 8 10 14 20 20 18 21 15 9 7 16 15 16 16 16 15 17 13 20 10 21
27 8 10 8 5 2 3 1 5 8 4 1 3 4 2 2 3 1 5 15 20 22 21 17 13 10 8 7 7 10 15 26 26 19 15 13 11 4 11 14 16 10 17 10 11 10 13 18 26
20 8 8 7 5 5 4 5 9 3 4 3 1 2 2 1 1 2 5 13 19 20 19 16 13 11 8 8 7 5 9 26 25 22 16 14 14 10 7 8 15 14 9 6 9 8 11 16 20
8 6 8 3 5 7 5 4 5 1 1 4 1 1 3 5 1 1 7 12 16 15 15 16 14 12 10 8 8 7 6 13 17 20 18 19 19 15 14 13 15 12 10 6 7 4 5 9 14
8 7 7 6 3 6 3 6 4 3 3 1 1 1 4 8 3 2 9 14 13 15 15 15 16 16 13 12 10 9 8 11 16 20 22 19 19 17 13 19 20 13 12 8 6 4 5 7 10
6 8 5 3 4 4 2 3 1 8 7 2 3 2 4 14 4 5 11 16 17 17 16 17 18 20 18 15 15 13 14 11 16 20 22 26 25 23 19 15 19 15 15 13 12 10 9 9 11
4 7 2 6 9 3 1 4 2 4 3 6 3 4 9 14 7 10 13 17 20 21 21 22 24 22 20 21 21 19 17 19 21 23 23 28 25 22 23 23 22 17 19 21 19 17 15 14 14
7 6 13 4 5 2 1 3 3 5 3 6 10 11 12 12 11 14 16 17 21 20 21 20 20 26 27 26 27 26 25 24 24 24 25 27 31 29 27 22 24 24 26 24 25 23 22 20 19
5 9 6 2 2 2 2 3 2 5 4 10 6 3 11 16 14 16 21 22 23 23 25 24 21 22 27 30 29 31 30 30 31 29 26 27 32 35 35 31 28 30 31 30 29 26 25 26 25
5 6 6 2 3 1 4 7 9 10 5 7 8 11 20 22 24 22 25 28 29 32 31 30 30 29 29 30 35 34 35 35 36 33 32 31 31 34 36 36 33 34 34 36 30 32 30 31 31
6 6 4 6 10 11 13 16 16 18 26 23 20 25 19 21 26 29 31 33 34 39 40 39 38 39 37 38 38 42 41 40 38 36 37 38 36 34 35 37 39 38 37 38 36 34 35 36 36
4 6 3 6 12 14 9 11 9 3 10 19 20 20 25 23 24 28 32 36 40 44 45 47 48 47 45 45 46 44 44 44 44 42 40 39 39 39 38 38 41 43 41 39 40 39 40 42 43
4 4 1 11 10 9 7 8 15 30 29 30 34 34 25 26 25 31 37 45 50 53 53 51 51 54 54 52 51 53 50 47 47 48 46 45 43 41 40 41 41 41 44 45 43 45 46 48 48
6 7 2 5 7 10 11 26 7 17 16 23 22 26 33 36 45 52 53 52 52 60 60 56 54 55 57 58 56 56 56 54 50 48 51 51 50 48 46 46 44 39 41 46 50 51 52 53 53
6 7 10 10 2 4 12 9 11 11 18 26 33 46 52 58 66 71 72 72 65 60 61 55 56 59 59 58 59 61 60 60 57 54 53 52 53 53 53 53 48 44 45 49 53 56 56 59 58
13 7 6 12 2 4 13 20 24 53 49 52 56 58 60 67 80 82 79 72 70 69 71 66 57 58 62 59 59 63 65 65 63 61 59 57 53 53 57 56 54 49 50 54 57 60 61 61 62
6 9 11 3 6 3 14 27 23 50 43 50 62 66 69 78 83 80 72 66 60 56 60 77 73 60 58 65 65 64 64 63 65 63 62 59 57 57 58 59 60 56 52 55 56 58 64 67 64
19 13 9 5 4 4 12 39 19 19 35 53 59 64 75 85 79 71 72 71 72 71 61 57 70 72 67 64 68 67 67 66 63 60 59 60 62 59 62 61 63 64 63 66 69 68 70 71 66
13 26 9 9 0 7 11 50 27 16 42 43 46 56 61 62 77 71 74 65 67 56 50 49 55 62 64 56 50 53 58 62 62 64 60 59 56 53 53 54 56 64 72 72 70 73 75 76 73
19 13 11 7 4 13 6 31 26 12 23 11 47 55 60 62 62 58 61 61 55 50 46 43 49 54 54 45 44 44 47 52 50 57 57 56 56 54 54 52 51 51 55 63 70 72 72 71 75
14 13 15 9 7 6 10 13 6 17 9 15 39 44 48 35 32 30 24 20 19 24 25 27 32 36 40 42 42 41 40 40 40 43 47 48 49 50 50 51 51 53 55 56 57 61 66 68 70
15 10 6 5 6 19 16 19 38 6 11 4 9 7 11 5 15 20 24 26 30 31 26 17 5 7 12 16 21 21 23 26 31 32 35 37 40 42 45 48 48 51 50 53 53 56 60 65 68
13 16 6 9 13 14 11 18 44 17 26 14 25 27 17 22 26 31 34 38 39 40 40 39 36 36 28 17 8 1 7 16 22 27 29 33 35 34 37 41 45 51 50 51 47 51 54 58 64
23 18 8 11 8 4 4 16 12 3 11 21 13 36 34 35 37 40 40 40 41 41 40 38 38 38 34 30 27 22 18 14 9 8 8 11 16 23 31 37 43 45 46 48 51 53 55 58 63
11 19 18 6 7 5 9 19 26 10 11 20 33 44 44 43 42 41 40 40 41 42 42 41 39 39 37 35 31 28 23 19 18 16 15 15 17 17 20 25 31 38 41 44 48 54 60 60 62
12 14 7 10 11 14 9 9 15 14 18 14 16 25 42 42 42 40 39 39 42 42 42 39 39 39 37 35 33 33 30 27 23 20 18 20 20 21 23 21 23 30 34 36 40 46 53 56 62
11 12 4 2 7 10 8 11 11 12 9 19 17 26 37 40 41 39 35 33 34 35 34 33 32 30 30 30 29 27 26 24 23 23 25 26 29 31 35 36 36 34 34 36 39 44 48 53 58
16 25 22 12 11 7 3 15 10 12 21 49 54 44 39 38 34 35 32 26 23 24 27 26 25 25 26 24 22 23 23 23 24 28 30 32 34 35 35 36 36 36 38 39 40 44 44 51 58
Wind_Direction_850mb
344 345 346 352 55 64 49 256 304 110 88 186 128 152 188 111 165 228 207 168 176 178 174 167 176 191 226 242 251 226 192 178 164 164 149 164 183 180 150 137 130 123 110 101 109 118 124 111 96
342 349 5 85 83 76 284 260 175 85 135 108 99 90 35 56 107 82 150 175 175 176 181 178 183 206 239 259 250 218 192 193 152 127 142 153 158 152 148 147 129 130 124 126 134 123 137 125 108
340 353 18 81 99 132 128 196 130 108 149 55 93 59 70 36 145 158 156 182 178 174 180 188 204 222 245 255 254 227 195 174 147 171 169 173 164 130 155 147 143 135 125 126 143 134 137 126 117
347 8 54 71 61 29 17 50 153 128 116 350 95 82 355 297 356 173 180 181 182 178 183 197 214 227 247 259 254 247 187 175 154 183 148 169 219 186 156 164 162 158 142 136 146 142 114 125 137
349 42 53 68 339 303 314 136 147 102 99 128 348 335 297 334 149 124 196 186 188 187 195 204 216 231 246 258 260 265 194 190 195 169 170 182 211 205 187 198 164 169 179 129 124 131 141 144 156
24 57 65 85 321 310 335 133 132 61 113 154 177 185 345 322 251 36 160 172 184 202 208 215 228 239 251 251 266 263 215 197 191 181 172 182 206 231 225 197 188 189 191 177 152 158 161 167 182
81 65 141 149 315 349 314 156 146 206 309 144 169 93 343 355 296 154 167 175 190 204 216 232 238 242 256 260 261 258 243 212 188 201 180 206 223 226 212 200 219 213 206 216 205 216 229 223 218
62 87 104 171 170 240 296 165 49 173 243 265 179 33 356 358 292 222 183 192 203 214 227 232 240 248 250 256 268 261 250 240 214 224 207 192 210 220 230 221 220 215 222 231 241 242 245 253 252
86 66 173 185 166 215 273 174 134 140 195 238 248 291 311 324 294 239 215 216 221 229 235 236 240 244 251 255 254 257 256 250 246 244 239 243 235 234 233 236 248 231 244 230 230 246 256 259 263
86 113 214 193 196 166 268 201 172 160 169 240 255 280 304 316 278 257 250 246 243 244 248 250 250 247 253 257 251 254 255 255 255 255 253 251 250 253 254 252 243 238 235 248 232 235 248 259 265
132 168 207 213 179 298 316 297 307 155 245 231 228 264 316 313 290 277 272 268 275 273 264 261 260 260 260 258 254 253 257 260 257 257 260 260 256 259 256 254 252 248 245 244 246 246 252 261 264
135 215 167 71 76 290 299 305 295 212 256 312 216 302 311 308 301 299 297 284 280 277 276 272 268 268 267 264 251 252 255 259 259 260 261 262 262 263 266 264 261 257 254 259 264 254 252 257 263
159 207 198 262 283 278 270 265 269 271 279 281 270 289 295 303 303 300 292 285 281 279 281 277 271 270 269 264 261 256 256 258 261 261 260 261 263 265 266 269 269 266 263 262 261 261 256 257 261
152 192 245 274 276 272 249 258 250 176 285 286 272 270 292 295 305 301 295 297 293 290 284 281 274 270 267 266 263 262 261 261 258 259 261 263 264 264 265 267 270 270 268 268 265 264 262 262 262
185 251 329 227 246 250 275 259 239 264 263 265 268 278 282 299 308 312 311 306 304 297 286 276 274 272 268 268 266 264 264 263 261 259 260 259 262 266 269 270 270 272 272 269 266 263 266 267 267
167 79 146 276 199 228 165 264 231 268 245 258 265 275 284 289 300 301 301 299 297 294 285 277 272 269 268 268 268 267 266 266 265 264 259 258 260 263 266 269 271 275 274 272 270 270 270 270 272
213 233 201 306 186 284 191 261 243 256 259 271 282 289 295 299 297 295 294 291 288 285 287 275 271 269 269 268 268 267 267 266 268 265 264 261 259 260 264 268 272 275 274 272 272 271 271 274 275
206 215 206 208 299 246 256 255 270 272 275 280 286 291 295 296 295 296 296 295 283 280 277 273 274 270 267 266 265 264 264 265 264 265 265 265 264 266 263 264 269 271 277 275 272 273 275 276 279
162 198 217 254 204 211 246 261 257 272 280 282 285 287 290 291 290 294 297 302 299 289 279 262 264 269 276 263 260 259 262 266 268 270 272 272 272 269 267 268 267 263 265 274 274 273 273 274 276
216 223 206 218 264 212 294 280 256 240 260 267 273 283 288 289 291 297 301 297 293 293 288 270 259 263 269 271 260 261 264 266 271 275 277 276 273 272 272 272 272 271 270 271 271 270 271 272 275
212 226 169 215 12 250 324 286 271 234 239 257 265 273 277 283 298 305 303 296 296 292 284 263 257 258 261 269 268 266 264 265 268 272 275 278 283 286 285 283 281 278 275 273 273 273 272 273 274
220 160 160 142 103 266 154 287 274 259 248 235 263 269 284 295 299 302 301 299 296 290 276 271 268 263 256 257 261 265 269 269 274 275 276 276 278 283 286 288 287 285 284 283 281 280 278 279 275
236 155 173 151 180 287 213 275 308 82 321 277 268 290 292 292 312 336 353 351 343 320 302 283 265 257 250 255 259 259 260 269 278 280 284 285 286 288 288 287 288 285 283 283 282 283 284 283 281
152 108 104 125 196 242 209 202 276 211 194 276 287 268 303 18 62 66 72 76 69 69 70 66 69 213 234 246 253 258 267 275 278 279 284 287 289 294 295 295 293 293 290 288 289 287 283 282 281
165 134 197 212 199 254 206 189 250 310 301 228 249 271 113 102 97 99 94 86 83 79 78 78 79 80 78 85 105 177 244 265 272 277 280 282 284 288 291 291 290 288 289 285 286 284 284 284 280
189 185 193 216 200 230 54 232 251 126 329 331 348 127 122 114 108 103 98 92 88 86 86 87 86 88 86 85 82 81 82 81 65 37 3 325 307 300 292 288 284 285 289 289 287 284 285 285 284
175 213 213 327 99 260 224 270 281 53 43 15 121 125 119 116 113 107 104 100 93 88 84 86 87 88 88 86 87 85 81 72 57 45 27 9 349 337 330 321 313 305 301 295 289 290 288 287 286
171 157 159 191 225 232 245 259 236 355 325 23 72 93 115 118 113 105 99 94 89 85 83 81 79 76 76 75 73 68 64 63 58 49 38 20 15 358 352 345 336 322 313 308 299 294 293 290 289
182 198 144 137 191 219 227 244 200 224 238 113 87 121 124 121 116 110 103 97 89 83 76 73 72 73 71 68 62 57 48 40 31 21 15 6 1 354 350 346 342 332 325 323 311 299 291 286 288
216 210 187 219 196 219 222 272 178 225 161 144 151 153 143 129 117 112 108 101 91 79 70 64 59 53 47 44 40 34 23 16 5 357 353 348 344 340 336 332 328 324 322 321 314 306 303 294 286